Hutchinson, KS

10:40 PM CST on February 10, 2016 (GMT -0600)
Hutchinson Municipal

Weather History for KHUT - October, 2013

Change the Weather History Date:

Sunday, October 13, 2013

  Actual Average Record
Temperature  
Mean Temperature 58 °F -  
Max Temperature 73 °F 69 °F 88 °F (2015)
Min Temperature 44 °F 42 °F 30 °F (2002)
Degree Days  
Heating Degree Days 6    
Growing Degree Days 8 (Base 50)    
Moisture  
Dew Point 40 °F    
Average Humidity 48    
Maximum Humidity 68    
Minimum Humidity 28    
Precipitation  
Precipitation 0.00 in - - ()
Sea Level Pressure  
Sea Level Pressure 30.24 in    
Wind  
Wind Speed 10 mph (East)    
Max Wind Speed 20 mph    
Max Gust Speed 28 mph    
Visibility 10 miles    
Events      
Averages and records for this station are not official NWS values.
T = Trace of Precipitation, MM = Missing Value Source: NWS Daily Summary

Daily Weather History Graph

Daily Weather History Graph

Search for Another Location

Airport or City:

Trip Planner

Search our weather history database for the weather conditions in past years. The results will help you decide how hot, cold, wet, or windy it might be!

Date:

Astronomy

Oct. 13, 2013 Rise Set
Actual Time 7:38 AM CDT 6:56 PM CDT
Civil Twilight 7:11 AM CDT 7:22 PM CDT
Nautical Twilight 6:41 AM CDT 7:53 PM CDT
Astronomical Twilight 6:10 AM CDT 8:23 PM CDT
Moon 3:44 PM CDT (10/13) 1:54 AM CDT (10/13)
Length of Visible Light 12h 10m
Length of Day
11h 17m
Waxing Gibbous, 69% of the Moon is Illuminated
Oct 13
Waxing Gibbous
Oct 18
Full
Oct 26
Last Quarter
Nov 3
New
Nov 9
First Quarter

Hourly Weather History & Observations

Time (CDT) Temp. Windchill Dew Point Humidity Pressure Visibility Wind Dir Wind Speed Gust Speed Precip Events Conditions
12:52 AM 52.0 °F - 35.1 °F 53% 30.24 in 10.0 mi ENE 6.9 mph - N/A   Clear
1:52 AM 52.0 °F - 35.1 °F 53% 30.24 in 10.0 mi NE 5.8 mph - N/A   Clear
2:52 AM 48.9 °F - 34.0 °F 56% 30.25 in 10.0 mi NNE 4.6 mph - N/A   Clear
3:52 AM 48.9 °F - 34.0 °F 56% 30.24 in 10.0 mi NE 5.8 mph - N/A   Clear
4:52 AM 44.1 °F 41.5 °F 34.0 °F 68% 30.26 in 10.0 mi ENE 4.6 mph - N/A   Clear
5:52 AM 45.0 °F 43.5 °F 34.0 °F 65% 30.27 in 10.0 mi East 3.5 mph - N/A   Clear
6:52 AM 45.0 °F 42.6 °F 35.1 °F 68% 30.29 in 10.0 mi East 4.6 mph - N/A   Clear
7:52 AM 46.9 °F - 34.0 °F 61% 30.31 in 10.0 mi ENE 6.9 mph - N/A   Clear
8:52 AM 52.0 °F - 35.1 °F 53% 30.32 in 10.0 mi East 11.5 mph - N/A   Clear
9:52 AM 59.0 °F - 35.1 °F 41% 30.32 in 10.0 mi East 15.0 mph 20.7 mph N/A   Clear
10:52 AM 66.0 °F - 35.1 °F 32% 30.32 in 10.0 mi East 15.0 mph - N/A   Clear
11:52 AM 68.0 °F - 35.1 °F 30% 30.30 in 10.0 mi ESE 19.6 mph 27.6 mph N/A   Scattered Clouds
12:52 PM 71.1 °F - 36.0 °F 28% 30.28 in 10.0 mi East 16.1 mph 24.2 mph N/A   Clear
1:52 PM 73.0 °F - 39.9 °F 30% 30.25 in 10.0 mi ESE 15.0 mph 24.2 mph N/A   Clear
2:52 PM 73.9 °F - 44.1 °F 34% 30.20 in 10.0 mi ESE 17.3 mph 24.2 mph N/A   Partly Cloudy
3:52 PM 73.0 °F - 46.0 °F 38% 30.19 in 10.0 mi SE 17.3 mph 25.3 mph N/A   Partly Cloudy
4:52 PM 71.1 °F - 46.9 °F 42% 30.19 in 10.0 mi ESE 13.8 mph 23.0 mph N/A   Mostly Cloudy
5:52 PM 70.0 °F - 46.9 °F 44% 30.18 in 10.0 mi ESE 13.8 mph - N/A   Mostly Cloudy
6:52 PM 66.0 °F - 46.0 °F 48% 30.18 in 10.0 mi ESE 12.7 mph - N/A   Mostly Cloudy
7:05 PM 66.2 °F - 46.4 °F 49% 30.21 in 10.0 mi ESE 11.5 mph - N/A   Mostly Cloudy
7:21 PM 64.4 °F - 46.4 °F 52% 30.21 in 10.0 mi ESE 13.8 mph 19.6 mph N/A   Mostly Cloudy
7:52 PM 64.9 °F - 46.0 °F 50% 30.19 in 10.0 mi ESE 12.7 mph - N/A   Overcast
8:02 PM 64.4 °F - 46.4 °F 52% 30.22 in 10.0 mi ESE 11.5 mph - N/A   Overcast
8:52 PM 64.9 °F - 44.1 °F 47% 30.19 in 10.0 mi SE 17.3 mph 23.0 mph N/A   Overcast
9:52 PM 64.0 °F - 44.1 °F 48% 30.19 in 10.0 mi ESE 10.4 mph 20.7 mph N/A   Overcast
10:52 PM 62.1 °F - 46.0 °F 56% 30.19 in 10.0 mi SE 6.9 mph - 0.00 in   Overcast
11:52 PM 63.0 °F - 44.1 °F 50% 30.15 in 10.0 mi SE 13.8 mph - N/A   Overcast